Content
SEND FEEDBACK

Daily
Averages
Monthly
Summary
United Kingdom

LONDON, ENGLAND


Home > Europe > United Kingdom > England
Elevation: 203 feet     Latitude: 51 09N     Longitude: 000 11W

WEATHER
 
SELECT A DAY
Number of Records: 293,658;   Date Range: 7/1/96 - 8/21/14
 
SHARE

PRINT THIS DATA

[ ← Previous Day ]
WEATHER ALMANAC - MARCH 19, 2013
[ Next Day → ]
[ °C ]   °F
Weather ElementAverageHighLow
Temperature39.6 °F46.4 °F (1:50 pm)32 °F (11:50 pm)
Dewpoint36.1 °F39.2 °F (12:50 pm)32 °F (10:20 pm)
Humidity88 %100 % (1:20 am)71 % (4:20 pm)
Barometer29.45 in29.50 in (8:20 pm)29.36 in (12:50 am)
Wind Speed5.3 mph9.2 mph (2:20 pm)
Weather ElementAverage
Visibility5.3 mi
Wind DirectionENE (57 °)

Weather ElementTotal
Precipitation---
Heating Degree Days25.8 (Base 65)
Averaged from 47 records on March 19, 2013
WEATHER CONDITIONS BREAKOUT
WIND DIRECTION BREAKOUT
WEATHER BY HOUR - MARCH 19, 2013
[ °C ]   °F
Local TimeTemperatureDewpointHumidityBarometerVisibilityWind DirectionWind SpeedGust SpeedPrecipitationEventsConditions
12:50 AM39.2 °F35.6 °F87 %29.36 in6.2 miNNE (30°)3.5 mphMostly Cloudy
1:20 AM37.4 °F37.4 °F100 %29.36 in6.2 miVariable2.3 mphMostly Cloudy
1:50 AM37.4 °F35.6 °F93 %29.39 in6.2 miNNE (30°)4.6 mphRainLight Rain
2:20 AM37.4 °F35.6 °F93 %29.39 in6.2 miVariable3.5 mphRainLight Rain
2:50 AM37.4 °F35.6 °F93 %29.39 in6.2 miCalmMostly Cloudy
3:20 AM37.4 °F35.6 °F93 %29.39 in6.2 miVariable2.3 mphMostly Cloudy
3:50 AM37.4 °F37.4 °F100 %29.39 in4.3 miCalmMostly Cloudy
4:20 AM37.4 °F37.4 °F100 %29.39 in5.0 miVariable3.5 mphMostly Cloudy
4:50 AM37.4 °F37.4 °F100 %29.42 in4.3 miCalmScattered Clouds
5:20 AM37.4 °F37.4 °F100 %29.42 in4.3 miNNE (30°)3.5 mphMostly Cloudy
5:50 AM37.4 °F35.6 °F93 %29.42 in4.3 miNE (40°)4.6 mphScattered Clouds
6:20 AM37.4 °F35.6 °F93 %29.42 in3.7 miEast (100°)3.5 mphMostly Cloudy
6:50 AM37.4 °F35.6 °F93 %29.42 in2.5 miVariable2.3 mphHaze
7:20 AM37.4 °F37.4 °F100 %29.44 in2.8 miCalmHaze
7:50 AM39.2 °F37.4 °F93 %29.44 in3.7 miVariable3.5 mphScattered Clouds
8:20 AM41.0 °F37.4 °F87 %29.44 in5.6 miENE (70°)5.8 mphMostly Cloudy
8:50 AM39.2 °F37.4 °F93 %29.44 in6.2 miEast (90°)4.6 mphMostly Cloudy
9:20 AM41.0 °F37.4 °F87 %29.44 in6.2 miENE (70°)4.6 mphMostly Cloudy
9:50 AM41.0 °F37.4 °F87 %29.47 in6.2 miNE (50°)6.9 mphMostly Cloudy
10:20 AM42.8 °F37.4 °F81 %29.47 in6.2 miEast (90°)5.8 mphMostly Cloudy
10:50 AM42.8 °F37.4 °F81 %29.47 in6.2 miEast (90°)6.9 mphMostly Cloudy
11:20 AM42.8 °F35.6 °F76 %29.47 in6.2 miENE (70°)6.9 mphMostly Cloudy
11:50 AM42.8 °F37.4 °F81 %29.47 in6.2 miENE (60°)4.6 mphMostly Cloudy
12:20 PM42.8 °F37.4 °F81 %29.47 in6.2 miEast (80°)5.8 mphMostly Cloudy
12:50 PM44.6 °F39.2 °F81 %29.47 in6.2 miNE (50°)6.9 mphScattered Clouds
1:20 PM44.6 °F37.4 °F76 %29.47 in6.2 miENE (70°)6.9 mphMostly Cloudy
1:50 PM46.4 °F39.2 °F76 %29.47 in6.2 miNE (50°)8.1 mphScattered Clouds
2:20 PM44.6 °F37.4 °F76 %29.47 in6.2 miENE (60°)9.2 mphMostly Cloudy
2:50 PM44.6 °F37.4 °F76 %29.47 in6.2 miEast (100°)9.2 mphMostly Cloudy
3:20 PM44.6 °F37.4 °F76 %29.47 in6.2 miESE (110°)8.1 mphPartly Cloudy
3:50 PM44.6 °F37.4 °F76 %29.44 in6.2 miEast (80°)9.2 mphPartly Cloudy
4:20 PM44.6 °F35.6 °F71 %29.44 in6.2 miEast (80°)9.2 mphPartly Cloudy
4:50 PM42.8 °F35.6 °F76 %29.44 in6.2 miESE (120°)9.2 mphPartly Cloudy
5:20 PM42.8 °F35.6 °F76 %29.44 in6.2 miESE (120°)8.1 mphPartly Cloudy
5:50 PM42.8 °F35.6 °F76 %29.47 in6.2 miEast (90°)6.9 mphMostly Cloudy
6:20 PM41.0 °F35.6 °F81 %29.47 in6.2 miENE (70°)8.1 mphScattered Clouds
6:50 PM39.2 °F35.6 °F87 %29.47 inEast (80°)5.8 mphClear
7:20 PM37.4 °F35.6 °F93 %29.47 in6.2 miENE (70°)4.6 mphScattered Clouds
7:50 PM39.2 °F35.6 °F87 %29.47 in6.2 miEast (80°)4.6 mphMostly Cloudy
8:20 PM35.6 °F33.8 °F93 %29.50 in5.0 miENE (70°)4.6 mphScattered Clouds
8:50 PM37.4 °F35.6 °F93 %29.50 in5.6 miENE (70°)5.8 mphPartly Cloudy
9:20 PM35.6 °F33.8 °F93 %29.50 in3.7 miENE (70°)5.8 mph
9:50 PM33.8 °F33.8 °F100 %29.50 inENE (70°)5.8 mphHaze
10:20 PM33.8 °F32.0 °F93 %29.50 in3.1 miENE (70°)4.6 mphMist
10:50 PM33.8 °F33.8 °F100 %29.50 in3.1 miENE (60°)5.8 mphMist
11:20 PM33.8 °F32.0 °F93 %29.50 in2.8 miENE (70°)5.8 mphMist
11:50 PM32.0 °F32.0 °F100 %29.50 in3.1 miENE (70°)5.8 mphHaze
Hourly data recorded from EGKK, located miles away from London, England







STORIES FROM OUR PARTNERS